K42C Weather Reports


time (UTC)temp
C
wind
direction
speed
KPH
gust
KPH
rain 1hr
cm
rain 24hr
cm
rain mn
cm
humidity
%
barometer
mb
20260507200424 10 277 3.2 0.0 0.00 0.00 0.00 50 974.6
20260507195858 10 236 6.4 8.0 0.00 0.00 0.00 50 974.6
20260507195746 10 236 6.4 8.0 0.00 0.00 0.00 50 974.6
20260507195105 9 208 1.6 0.0 0.00 0.00 0.00 50 974.6
20260507194428 9 243 1.6 0.0 0.00 0.00 0.00 50 974.7
20260507193747 10 211 6.4 3.2 0.00 0.00 0.00 49 974.5
20260507193110 10 273 9.7 9.7 0.00 0.00 0.00 48 974.5
20260507192429 10 280 6.4 0.0 0.00 0.00 0.00 48 974.5
20260507191751 11 256 6.4 0.0 0.00 0.00 0.00 47 974.5
20260507191111 10 300 14.5 6.4 0.00 0.00 0.00 50 974.4
20260507190433 10 267 11.3 6.4 0.00 0.00 0.00 50 974.5
20260507185752 10 295 4.8 8.0 0.00 0.00 0.00 49 974.4
20260507185115 10 300 9.7 6.4 0.00 0.00 0.00 48 974.5
20260507184434 10 333 12.9 16.1 0.00 0.00 0.00 48 974.4
20260507183757 10 294 9.7 16.1 0.00 0.00 0.00 48 974.4
20260507183223 10 263 0.0 9.7 0.00 0.00 0.00 49 974.4
20260507183116 10 263 0.0 9.7 0.00 0.00 0.00 49 974.4
20260507182439 11 312 14.5 0.0 0.00 0.00 0.00 47 974.4
20260507181758 10 276 11.3 0.0 0.00 0.00 0.00 50 974.4
20260507181120 10 219 14.5 0.0 0.00 0.00 0.00 49 974.6
20260507180440 10 198 12.9 0.0 0.00 0.00 0.00 50 974.6
20260507175802 10 277 1.6 14.5 0.00 0.00 0.00 50 974.7
20260507175351 10 236 3.2 4.8 0.00 0.00 0.00 53 974.6
20260507175121 10 236 3.2 4.8 0.00 0.00 0.00 53 974.6
20260507174444 10 271 11.3 16.1 0.00 0.00 0.00 52 974.7
20260507173803 10 242 8.0 12.9 0.00 0.00 0.00 53 974.9
20260507173126 9 246 9.7 8.0 0.00 0.00 0.00 55 975.0
20260507172445 9 352 4.8 0.0 0.00 0.00 0.00 56 975.1
20260507171808 9 329 14.5 11.3 0.00 0.00 0.00 56 975.1
20260507171127 9 294 9.7 0.0 0.00 0.00 0.00 57 975.3
20260507170449 8 273 8.0 12.9 0.00 0.00 0.00 59 975.4
20260507165808 8 238 8.0 17.7 0.00 0.00 0.00 59 975.7
20260507165131 8 356 11.3 17.7 0.00 0.00 0.00 60 975.7
20260507164450 8 280 6.4 14.5 0.00 0.00 0.00 59 976.0
20260507163813 8 284 3.2 9.7 0.00 0.00 0.00 59 976.0
20260507163132 8 242 6.4 8.0 0.00 0.00 0.00 61 976.1
20260507162455 8 238 8.0 12.9 0.00 0.00 0.00 61 976.3
20260507161814 8 260 6.4 4.8 0.00 0.00 0.00 63 976.4
20260507161137 8 276 6.4 0.0 0.00 0.00 0.00 67 976.6
20260507155818 7 224 4.8 6.4 0.00 0.00 0.00 69 976.6
20260507155137 7 250 8.0 4.8 0.00 0.00 0.00 68 976.5
20260507153819 7 193 1.6 0.0 0.00 0.00 0.00 67 976.6
20260507153142 7 345 1.6 12.9 0.00 0.00 0.00 71 976.6
20260507152501 7 333 4.8 4.8 0.00 0.00 0.00 70 976.6
20260507151824 7 236 1.6 6.4 0.00 0.00 0.00 68 976.8
20260507151143 7 298 3.2 0.0 0.00 0.00 0.00 66 976.8
20260507150506 7 266 0.0 0.0 0.00 0.00 0.00 67 976.8
20260507145825 7 308 0.0 0.0 0.00 0.00 0.00 67 976.7
20260507145147 7 290 0.0 0.0 0.00 0.00 0.00 67 976.7
20260507144506 7 290 0.0 0.0 0.00 0.00 0.00 64 976.6
20260507143829 7 328 1.6 6.4 0.00 0.00 0.00 66 976.7
20260507143148 7 270 9.7 8.0 0.00 0.00 0.00 65 976.7
20260507142511 7 301 0.0 0.0 0.00 0.00 0.00 63 976.5
20260507141830 7 270 8.0 0.0 0.00 0.00 0.00 63 976.5
20260507141333 7 291 0.0 0.0 0.00 0.00 0.00 64 976.4
20260507141153 7 291 0.0 0.0 0.00 0.00 0.00 64 976.4
20260507140512 7 271 6.4 11.3 0.00 0.00 0.00 63 976.4
20260507135834 7 253 3.2 9.7 0.00 0.00 0.00 63 976.4
20260507135341 7 246 6.4 12.9 0.00 0.00 0.00 68 976.4
20260507135154 7 246 6.4 12.9 0.00 0.00 0.00 68 976.4
20260507134516 7 314 1.6 0.0 0.00 0.00 0.00 71 976.4
20260507133910 7 194 3.2 0.0 0.00 0.00 0.00 74 976.4
20260507133835 7 194 3.2 0.0 0.00 0.00 0.00 74 976.4
20260507133310 7 255 0.0 0.0 0.00 0.00 0.00 74 976.4
20260507133158 7 255 0.0 0.0 0.00 0.00 0.00 74 976.4
20260507132517 7 210 1.6 0.0 0.00 0.00 0.00 76 976.3
20260507131840 6 35 0.0 0.0 0.00 0.00 0.00 78 976.3
20260507131342 6 35 0.0 0.0 0.00 0.00 0.00 78 976.3
20260507131159 6 35 0.0 0.0 0.00 0.00 0.00 78 976.3
20260507130620 6 35 0.0 0.0 0.00 0.00 0.00 78 976.3
20260507130522 6 35 0.0 0.0 0.00 0.00 0.00 78 976.3
20260507125923 6 249 0.0 0.0 0.00 0.00 0.00 80 976.4
20260507125841 6 249 0.0 0.0 0.00 0.00 0.00 80 976.4
20260507124523 6 274 0.0 0.0 0.00 0.00 0.00 79 976.5
20260507123919 5 274 0.0 0.0 0.00 0.00 0.00 82 976.5
20260507123845 5 274 0.0 0.0 0.00 0.00 0.00 82 976.5
20260507123204 5 274 0.0 0.0 0.00 0.00 0.00 86 976.6
20260507122742 5 274 0.0 0.0 0.00 0.00 0.00 87 976.6
20260507122527 5 274 0.0 0.0 0.00 0.00 0.00 87 976.6
20260507121936 5 274 0.0 0.0 0.00 0.00 0.00 90 976.8
20260507121846 5 274 0.0 0.0 0.00 0.00 0.00 90 976.8
20260507121209 4 274 0.0 0.0 0.00 0.00 0.00 90 976.9
20260507120528 3 274 0.0 0.0 0.00 0.00 0.00 92 976.9
20260507115851 3 274 0.0 0.0 0.00 0.00 0.00 94 976.9
20260507114629 2 274 0.0 0.0 0.00 0.00 0.00 96 977.1
20260507114532 2 274 0.0 0.0 0.00 0.00 0.00 96 977.1
20260507113851 2 274 0.0 0.0 0.00 0.00 0.00 96 977.1
20260507113214 1 274 0.0 0.0 0.00 0.00 0.00 96 977.2
20260507112533 1 274 0.0 0.0 0.00 0.00 0.00 97 977.1
20260507111856 1 274 0.0 0.0 0.00 0.00 0.00 98 977.2
20260507111215 0 274 0.0 0.0 0.00 0.00 0.00 98 977.1
20260507110537 0 274 0.0 0.0 0.00 0.00 0.00 98 976.9
20260507105856 0 274 0.0 0.0 0.00 0.00 0.00 98 976.9
20260507105219 0 274 0.0 0.0 0.00 0.00 0.00 97 976.8
20260507104539 0 274 0.0 0.0 0.00 0.00 0.00 97 976.7
20260507103900 0 274 0.0 0.0 0.00 0.00 0.00 96 976.6
20260507103219 0 274 0.0 0.0 0.00 0.00 0.00 95 976.7
20260507102542 1 274 0.0 0.0 0.00 0.00 0.00 95 976.6
20260507101901 1 274 0.0 0.0 0.00 0.00 0.00 95 976.7
20260507101224 1 274 0.0 0.0 0.00 0.00 0.00 94 976.6
20260507100543 1 274 0.0 0.0 0.00 0.00 0.00 93 976.5
20260507095905 1 274 0.0 0.0 0.00 0.00 0.00 92 976.4
20260507095224 2 274 0.0 0.0 0.00 0.00 0.00 92 976.4
20260507093906 2 274 0.0 0.0 0.00 0.00 0.00 90 976.3
20260507093228 3 274 0.0 0.0 0.00 0.00 0.00 88 976.4
20260507092547 3 274 0.0 0.0 0.00 0.00 0.00 87 976.3
20260507091910 3 274 0.0 0.0 0.00 0.00 0.00 86 976.2
20260507091229 3 274 0.0 0.0 0.00 0.00 0.00 85 976.4
20260507090552 3 274 0.0 0.0 0.00 0.00 0.00 84 976.3
20260507085911 3 274 0.0 0.0 0.00 0.00 0.00 83 976.3
20260507085233 4 274 0.0 0.0 0.00 0.00 0.00 82 976.3
20260507084552 4 274 0.0 0.0 0.00 0.00 0.00 81 976.3
20260507083915 5 274 0.0 0.0 0.00 0.00 0.00 81 976.4
20260507083234 5 274 0.0 0.0 0.00 0.00 0.00 80 976.4
20260507082557 5 274 0.0 0.0 0.00 0.00 0.00 80 976.4
20260507081916 5 274 0.0 0.0 0.00 0.00 0.00 79 976.4
20260507081238 5 274 0.0 0.0 0.00 0.00 0.00 79 976.4
20260507080557 5 274 0.0 0.0 0.00 0.00 0.00 78 976.3
20260507075920 5 274 0.0 0.0 0.00 0.00 0.00 77 976.4
20260507075239 5 274 0.0 0.0 0.00 0.00 0.00 76 976.4
20260507074602 5 274 0.0 0.0 0.00 0.00 0.00 76 976.5
20260507073921 5 274 0.0 0.0 0.00 0.00 0.00 75 976.5
20260507073243 5 274 0.0 0.0 0.00 0.00 0.00 75 976.4
20260507072602 5 274 0.0 0.0 0.00 0.00 0.00 75 976.5
20260507071925 6 274 0.0 0.0 0.00 0.00 0.00 75 976.5
20260507071244 6 274 0.0 0.0 0.00 0.00 0.00 74 976.5
20260507070607 6 274 0.0 0.0 0.00 0.00 0.00 75 976.7
20260507065248 6 274 0.0 0.0 0.00 0.00 0.00 74 976.7
20260507064607 6 274 0.0 0.0 0.00 0.00 0.00 73 976.7
20260507063930 6 274 0.0 0.0 0.00 0.00 0.00 73 976.7
20260507063249 6 274 0.0 0.0 0.00 0.00 0.00 73 976.7
20260507062612 6 274 0.0 0.0 0.00 0.00 0.00 73 976.7
20260507061931 6 256 0.0 0.0 0.00 0.00 0.00 72 976.8
20260507061253 6 274 0.0 0.0 0.00 0.00 0.00 72 976.8
20260507060612 6 271 0.0 0.0 0.00 0.00 0.00 72 976.9
20260507055254 6 333 1.6 0.0 0.00 0.00 0.00 72 976.9
20260507054617 6 318 0.0 0.0 0.00 0.00 0.00 72 976.9
20260507053936 6 318 0.0 0.0 0.00 0.00 0.00 72 976.9
20260507053258 6 318 0.0 0.0 0.00 0.00 0.00 72 976.9
20260507052617 6 304 1.6 0.0 0.00 0.00 0.00 72 977.0
20260507051940 6 309 0.0 0.0 0.00 0.00 0.00 71 977.0
20260507051259 6 248 0.0 0.0 0.00 0.00 0.00 70 977.0
20260507050621 6 221 1.6 0.0 0.00 0.00 0.00 70 976.9
20260507045941 6 287 0.0 0.0 0.00 0.00 0.00 70 976.9
20260507045306 6 287 0.0 0.0 0.00 0.00 0.00 70 977.0
20260507044622 6 287 0.0 0.0 0.00 0.00 0.00 69 977.0
20260507043945 6 287 0.0 0.0 0.00 0.00 0.00 68 976.8
20260507043304 6 287 0.0 0.0 0.00 0.00 0.00 68 976.9
20260507042626 6 287 0.0 0.0 0.00 0.00 0.00 67 976.8
20260507041945 6 287 0.0 0.0 0.00 0.00 0.00 67 976.8
20260507041308 6 287 0.0 0.0 0.00 0.00 0.00 67 976.9
20260507040627 7 287 0.0 0.0 0.00 0.00 0.00 67 976.9
20260507035950 7 287 0.0 0.0 0.00 0.00 0.00 67 976.8
20260507035309 7 287 0.0 0.0 0.00 0.00 0.00 66 976.8
20260507034631 7 287 0.0 0.0 0.00 0.00 0.00 66 976.7
20260507033950 7 287 0.0 0.0 0.00 0.00 0.00 66 976.8
20260507033313 7 287 0.0 0.0 0.00 0.00 0.00 65 976.8
20260507032632 7 287 0.0 0.0 0.00 0.00 0.00 65 976.9
20260507031954 7 287 0.0 0.0 0.00 0.00 0.00 65 976.9
20260507031313 7 287 0.0 0.0 0.00 0.00 0.00 65 976.9
20260507030636 7 287 0.0 0.0 0.00 0.00 0.00 65 976.9
20260507025955 7 287 0.0 0.0 0.00 0.00 0.00 64 976.9
20260507025318 7 287 0.0 0.0 0.00 0.00 0.00 64 977.0
20260507024637 7 287 0.0 0.0 0.00 0.00 0.00 64 977.0
20260507023959 7 287 0.0 0.0 0.00 0.00 0.00 63 976.9
20260507023318 7 253 0.0 0.0 0.00 0.00 0.00 64 976.9
20260507022641 7 188 0.0 0.0 0.00 0.00 0.00 64 976.9
20260507022000 7 304 1.6 0.0 0.00 0.00 0.00 63 976.9
20260507021322 7 308 0.0 0.0 0.00 0.00 0.00 63 976.9
20260507020641 7 308 0.0 0.0 0.00 0.00 0.00 63 976.7
20260507020004 8 308 0.0 0.0 0.00 0.00 0.00 63 976.7
20260507015323 8 308 3.2 0.0 0.00 0.00 0.00 63 976.6
20260507014646 8 240 1.6 0.0 0.00 0.00 0.00 63 976.6
20260507014005 8 235 4.8 0.0 0.00 0.00 0.00 63 976.6
20260507013327 8 240 0.0 0.0 0.00 0.00 0.00 62 976.5
20260507012646 8 240 0.0 0.0 0.00 0.00 0.00 62 976.5
20260507012009 8 240 0.0 0.0 0.00 0.00 0.00 61 976.4
20260507011328 8 240 0.0 0.0 0.00 0.00 0.00 61 976.3
20260507010650 8 240 0.0 0.0 0.00 0.00 0.00 60 976.3
20260507010009 8 240 0.0 0.0 0.00 0.00 0.00 59 976.2
20260507004651 8 255 6.4 8.0 0.00 0.00 0.00 59 976.1
20260507004014 8 208 0.0 0.0 0.00 0.00 0.00 59 975.9
20260507003333 8 236 1.6 6.4 0.00 0.00 0.00 58 975.9
20260507002655 9 326 1.6 6.4 0.00 0.00 0.00 58 975.8
20260507002014 9 257 3.2 0.0 0.00 0.00 0.00 57 975.7
20260507001337 9 278 0.0 6.4 0.00 0.00 0.00 56 975.5
20260507000018 10 314 4.8 8.0 0.00 0.00 0.00 54 975.2
20260506235338 10 274 3.2 4.8 0.00 0.00 0.00 53 975.1
20260506234700 10 359 6.4 0.0 0.00 0.00 0.00 52 975.2
20260506234019 10 276 3.2 16.1 0.00 0.00 0.00 52 975.2
20260506233342 10 287 4.8 6.4 0.00 0.00 0.00 52 975.3
20260506232701 10 250 8.0 0.0 0.00 0.00 0.00 51 975.2
20260506232023 10 215 9.7 4.8 0.00 0.00 0.00 52 975.1
20260506231343 10 328 0.0 8.0 0.00 0.00 0.00 51 975.0
20260506230705 10 245 8.0 0.0 0.00 0.00 0.00 51 975.0
20260506230024 10 238 1.6 0.0 0.00 0.00 0.00 51 975.0
20260506225347 11 250 4.8 6.4 0.00 0.00 0.00 50 975.0
20260506224706 11 256 3.2 0.0 0.00 0.00 0.00 50 975.0
20260506224029 11 212 0.0 0.0 0.00 0.00 0.00 50 975.0
20260506223348 11 250 6.4 0.0 0.00 0.00 0.00 49 974.9
20260506222710 11 335 11.3 4.8 0.00 0.00 0.00 48 974.9
20260506222029 11 283 6.4 0.0 0.00 0.00 0.00 49 974.9
20260506221352 11 276 3.2 4.8 0.00 0.00 0.00 49 974.9
20260506220711 11 278 0.0 9.7 0.00 0.00 0.00 48 974.8
20260506220034 11 288 6.4 8.0 0.00 0.00 0.00 49 974.7
20260506215353 11 217 3.2 0.0 0.00 0.00 0.00 47 974.8
20260506214715 11 294 4.8 17.7 0.00 0.00 0.00 47 974.8
20260506214034 11 236 4.8 9.7 0.00 0.00 0.00 48 974.8
20260506213357 11 229 1.6 0.0 0.00 0.00 0.00 48 974.6
20260506212716 11 235 0.0 0.0 0.00 0.00 0.00 47 974.7
20260506212039 11 269 9.7 4.8 0.00 0.00 0.00 46 974.7
20260506211358 11 203 9.7 11.3 0.00 0.00 0.00 47 974.5
20260506210721 11 264 14.5 11.3 0.00 0.00 0.00 45 974.8
20260506205402 11 256 9.7 8.0 0.00 0.00 0.00 45 974.7
20260506204721 11 173 6.4 0.0 0.00 0.00 0.00 45 974.6
20260506204044 11 3 8.0 0.0 0.00 0.00 0.00 46 974.6
20260506202726 11 259 6.4 0.0 0.00 0.00 0.00 45 974.7
20260506202045 11 256 12.9 9.7 0.00 0.00 0.00 44 974.7
20260506201407 12 266 3.2 0.0 0.00 0.00 0.00 44 974.8
20260506200727 12 281 3.2 8.0 0.00 0.00 0.00 45 974.8